Lid_Strength_Index
14 14 14 13 13 13 13 13 13 15 14 13 12 11 10 10 9 9 10 8 6 6 6 5 5 5 5 5 5 5 5 5 5 5 4 4 4 3
13 14 14 14 13 13 13 13 14 14 16 13 13 12 11 10 10 10 11 8 8 7 7 7 7 6 6 5 5 5 5 5 5 5 4 4 4 4
13 13 13 13 12 13 13 13 14 14 16 13 12 12 13 13 12 12 11 12 11 8 8 7 7 7 6 6 6 5 5 5 5 5 4 4 4 4
13 12 12 11 12 12 13 13 13 13 14 14 12 12 12 11 12 12 11 10 11 9 8 8 7 7 6 6 6 6 5 5 5 5 5 5 4 4
11 11 11 11 11 11 12 12 12 11 13 12 12 11 11 11 11 10 10 11 10 8 8 8 8 7 7 7 7 6 6 5 5 5 5 6 5 5
10 10 10 11 11 12 11 11 11 12 12 12 12 12 11 11 11 11 11 11 11 9 8 8 7 7 7 7 7 6 6 6 6 6 6 6 5 6
10 10 10 9 8 8 9 10 11 11 12 12 12 12 11 11 11 11 11 11 10 10 10 9 9 10 9 7 7 7 7 7 6 6 6 6 5 5
11 10 10 8 8 7 6 6 7 10 10 11 10 10 10 10 9 10 10 11 12 9 10 10 10 10 10 9 7 6 6 6 6 6 6 6 5 6
10 10 10 8 7 9 7 6 6 6 6 8 9 9 9 9 9 9 9 10 10 8 8 10 8 9 8 8 6 5 5 6 6 6 6 5 5 5
10 10 11 10 10 9 9 10 9 8 8 8 8 8 8 7 7 7 8 8 8 7 7 10 9 9 8 8 5 5 5 5 5 5 5 5 5 5
11 11 11 11 8 6 8 9 8 8 6 5 4 4 4 4 4 6 8 9 10 10 7 8 8 9 9 8 7 4 4 4 4 4 4 4 4 4
11 11 8 8 6 6 8 9 9 8 7 7 6 5 5 5 4 5 6 8 10 10 7 8 8 8 9 8 8 7 8 4 3 3 3 3 3 5
11 10 9 6 6 5 5 6 6 5 5 6 7 7 7 7 6 5 5 7 8 8 5 5 6 6 6 7 8 9 7 5 5 5 4 4 3 3
9 9 9 6 5 4 3 3 3 4 6 7 8 8 8 7 6 6 6 6 5 6 4 5 6 6 7 7 8 8 8 7 7 7 6 5 3 3
8 7 4 4 3 4 3 3 3 6 7 8 9 8 7 6 6 6 6 6 5 5 5 5 5 5 5 6 7 8 7 7 7 8 8 7 7 6
5 6 5 4 3 4 5 6 6 7 8 8 8 7 7 6 7 6 7 7 7 6 5 5 5 5 6 6 7 8 8 9 8 9 8 7 7 7
4 5 5 5 7 7 7 7 8 8 8 8 8 8 8 7 7 6 7 7 7 7 7 6 6 6 6 6 8 8 9 9 9 8 8 9 8 7
5 6 6 6 8 8 8 8 8 7 8 8 8 8 8 8 8 7 7 7 7 7 9 8 7 8 8 8 6 9 10 9 9 8 8 10 10 8
6 7 8 8 8 8 8 9 8 8 8 8 9 8 9 8 8 8 7 8 8 10 10 11 12 13 14 13 10 7 11 10 10 10 10 10 11 10
7 7 8 8 8 8 9 9 9 9 9 9 9 9 8 8 8 8 8 9 10 11 12 12 12 12 13 14 14 11 8 11 11 11 11 10 9 8
7 8 8 8 9 9 9 9 9 9 9 9 9 9 8 8 8 8 9 8 9 12 14 13 11 8 11 12 14 14 12 9 9 11 12 12 13 12
8 8 9 9 9 9 10 9 10 9 9 9 9 9 8 8 8 9 10 11 11 12 12 12 11 12 13 13 14 15 13 12 10 9 9 10 13 15
9 9 9 9 9 10 10 10 10 10 9 9 9 9 8 9 8 9 10 11 12 13 12 13 12 12 13 13 14 15 14 13 12 12 11 9 8 8